• Processing (Info)

  • MPEC 2002-K07 : 2001 KL76

    The following Minor Planet Electronic Circular may be linked-to from your own Web pages, but must not otherwise be redistributed electronically.

    A form allowing access to any MPEC is at the bottom of this page.


    Read MPEC 2002-K06 Read MPEC 2002-K08


    M.P.E.C. 2002-K07                                Issued 2002 May 16, 21:17 UT
    
         The Minor Planet Electronic Circulars contain information on unusual
             minor planets and routine data on comets.  They are published
       on behalf of Commission 20 of the International Astronomical Union by the
              Minor Planet Center, Smithsonian Astrophysical Observatory,
                              Cambridge, MA 02138, U.S.A.
    
                 Prepared using the Tamkin Foundation Computer Network
    
                                  MPC@CFA.HARVARD.EDU
              URL http://cfa-www.harvard.edu/iau/mpc.html  ISSN 1523-6714
    
                                       2001 KL76
    
                               Revision to MPEC 2001-M60
    
    Observations:
         K01K76L  C2002 03 22.57173 16 10 04.54 -21 19 11.5                      568
         K01K76L  C2002 03 22.60925 16 10 04.47 -21 19 11.6                      568
         K01K76L  C2002 04 11.53042 16 09 17.48 -21 17 09.5          22.8 R      568
         K01K76L  C2002 04 11.58560 16 09 17.31 -21 17 09.1                      568
    
    Observer details:
    568 Mauna Kea.  Observers B. Gladman, J. Kavelaars, A. Doressoundiram,
        J. Pittichova, K. J. Meech, S. Ash, J. Bauer.  Measurers B. Gladman,
        M. W. Buie, K. J. Meech, S. Ash, J. Pittichova.  3.6-m Canada-France-
        Hawaii Telescope + CCD, 2.2-m University of Hawaii reflector + CCD.
    
    Orbital elements:
    2001 KL76
    Epoch 2002 May 6.0 TT = JDT 2452400.5                   MPC
    M 211.62950              (2000.0)            P               Q
    n   0.00333954     Peri.  142.19559     +0.79258162     -0.60935100
    a  44.3280377      Node   255.36192     +0.55362925     +0.73458192
    e   0.1031725      Incl.    1.33185     +0.25555631     +0.29846400
    P 295              H    6.6           G   0.15           U   7
    Residuals in seconds of arc
    010522 807  0.0   0.2-    010724 568  0.1+  0.1+    020322 568  0.1+  0.2-
    010522 807  0.1+  0.3-    010724 568  0.3+  0.3+    020411 568  0.0   0.0
    010610 304  0.1+  0.1-    010725 568  0.1+  0.3+    020411 568  0.1+  0.0
    010610 304  0.0   0.1-    020322 568  0.2+  0.0
    
    Ephemeris:
    2001 KL76                a,e,i = 44.33, 0.10, 1                  q = 39.755
    Date    TT    R. A. (2000) Decl.     Delta      r     Elong.  Phase     V
    2002 05 16    16 07.07   -21 11.2   47.336   48.335   171.1     0.2    23.5
    2002 05 26    16 06.32   -21 09.2   47.321   48.334   179.0     0.0    23.4
    2002 06 05    16 05.59   -21 07.1   47.336   48.333   169.3     0.2    23.5
    2002 06 15    16 04.87   -21 05.1   47.378   48.332   159.6     0.4    23.5
    2002 06 25    16 04.22   -21 03.3   47.449   48.331   149.9     0.6    23.5
    2002 07 05    16 03.63   -21 01.6   47.544   48.329   140.2     0.8    23.5
    2002 07 15    16 03.15   -21 00.2   47.661   48.328   130.6     0.9    23.6
    2002 07 25    16 02.77   -20 59.0   47.797   48.327   120.9     1.0    23.6
    2002 08 04    16 02.52   -20 58.3   47.948   48.326   111.3     1.1    23.6
    2002 08 14    16 02.41   -20 57.8   48.109   48.325   101.7     1.2    23.6
    2002 08 24    16 02.43   -20 57.8   48.276   48.323    92.1     1.2    23.6
    2002 09 03    16 02.60   -20 58.2   48.444   48.322    82.5     1.2    23.6
    2002 09 13    16 02.91   -20 59.0   48.609   48.321    72.8     1.1    23.6
    2002 09 23    16 03.36   -21 00.1   48.765   48.320    63.2     1.1    23.6
    2002 10 03    16 03.93   -21 01.6   48.907   48.319    53.5     1.0    23.6
    2002 10 13    16 04.62   -21 03.4   49.033   48.318    43.8     0.8    23.6
    2002 10 23    16 05.40   -21 05.5   49.138   48.316    34.1     0.7    23.6
    
    Brian G. Marsden             (C) Copyright 2002 MPC           M.P.E.C. 2002-K07
    

    Read MPEC 2002-K06 Read MPEC 2002-K08


    MPEC number:

    Enter an MPEC number in one of the following forms:

    • 1997-B01 (the full form)
    • J97B01 (the packed version of the full form)
    • B01 (the abbreviated form)